Theta_e
340 338 340 340 341 341 341 338 336 335 335 335 333 334 332 333 332 333 336 351 349 350 352 352 350 351 352 353 352 352 350 349 348 348 348 349 348 347 347 346 344 343 343
339 343 340 344 343 343 343 340 337 336 337 336 335 336 336 335 335 336 336 342 348 348 350 353 353 351 351 352 353 352 350 349 348 347 347 347 347 347 347 347 345 344 344
346 340 345 342 342 342 342 340 339 340 338 338 335 335 337 337 336 337 337 337 343 348 348 349 352 353 353 353 354 353 351 347 347 346 347 345 347 347 345 346 347 345 344
346 349 344 344 342 341 340 338 335 332 332 333 331 332 333 335 337 338 338 339 338 340 346 348 349 351 353 353 354 354 350 346 345 344 345 345 346 347 346 345 346 346 343
351 347 347 344 343 341 340 339 335 333 331 333 334 333 334 337 340 341 339 340 339 340 339 344 348 348 349 350 353 354 352 347 345 344 344 345 346 347 346 346 345 345 344
350 348 347 344 343 342 339 335 332 333 333 332 336 335 334 340 340 340 340 343 342 342 341 339 341 343 346 348 350 352 351 348 346 344 343 344 345 346 346 346 345 345 344
350 348 344 344 345 341 336 334 332 330 329 332 329 332 338 340 341 343 343 341 342 342 341 339 340 341 341 345 346 348 350 349 347 345 342 341 343 345 346 345 345 345 343
344 349 347 344 342 338 337 335 333 331 331 334 332 333 330 329 334 343 341 342 342 342 340 340 341 339 339 339 339 344 348 348 349 347 343 340 341 343 344 345 345 344 343
340 342 344 344 341 340 337 336 337 335 331 332 336 333 325 321 331 336 340 339 339 340 340 339 342 342 342 343 343 344 345 345 348 347 345 341 342 344 343 344 344 343 344
337 338 342 343 341 341 339 337 337 337 333 329 336 342 340 336 326 323 336 339 339 340 340 339 339 341 342 341 343 342 341 341 346 346 343 344 343 344 342 342 342 343 343
340 339 339 341 342 340 340 339 338 339 337 335 337 332 327 324 324 324 324 330 335 338 339 338 340 338 339 339 337 339 339 338 339 340 340 342 342 343 343 342 340 342 343
339 342 341 342 340 341 341 337 338 338 337 338 341 332 324 329 331 333 332 331 328 331 336 339 338 337 336 336 339 338 335 335 333 334 334 336 338 340 340 342 343 342 342
329 340 343 341 340 342 341 341 338 341 341 341 341 336 333 334 337 338 335 329 328 329 331 335 337 336 336 333 334 336 336 331 330 328 330 331 334 335 337 339 342 342 342
326 329 334 343 343 343 342 342 339 337 339 342 342 338 335 338 343 340 334 330 322 323 326 327 331 334 334 333 334 336 333 330 328 326 325 326 329 331 333 334 336 337 338
330 330 332 335 340 343 341 340 338 337 341 344 344 344 342 344 343 340 336 332 324 318 320 325 326 332 332 331 332 331 332 329 328 324 323 323 325 326 328 329 330 330 331
331 331 331 330 333 336 348 350 348 348 346 349 350 349 348 347 340 340 337 333 330 325 320 325 327 329 332 331 333 331 331 329 326 323 323 322 322 323 324 325 326 327 328
330 332 333 334 333 333 337 349 350 350 348 349 350 348 346 345 340 336 337 332 329 328 324 323 328 329 327 328 328 328 330 328 329 323 323 321 319 320 320 321 322 324 325
329 331 334 333 334 335 334 336 344 349 347 347 347 346 344 344 340 339 334 331 330 330 325 324 325 324 326 325 324 323 327 332 329 325 322 318 316 316 315 316 318 319 319
324 326 329 331 332 335 335 336 340 341 343 348 347 344 343 340 340 341 335 331 331 331 328 326 323 323 323 323 320 321 322 324 326 323 319 319 317 316 314 314 314 315 315
322 322 324 327 329 330 334 336 337 343 343 346 346 344 343 343 342 339 335 333 331 328 327 324 322 320 320 321 320 317 319 325 320 325 321 320 319 317 315 313 315 315 312
317 320 321 323 327 329 331 334 336 337 344 344 342 345 343 341 335 336 337 332 329 326 324 322 320 318 317 319 317 318 321 323 326 323 320 319 320 321 318 314 319 319 311
315 319 322 322 323 326 318 316 320 337 343 343 341 343 340 331 329 324 325 326 327 326 324 321 319 318 317 318 320 319 318 317 317 327 325 323 322 322 322 321 315 312 309
311 313 316 319 322 326 314 312 314 324 339 342 339 337 334 337 330 330 321 320 321 320 324 324 321 320 319 320 321 320 319 317 316 320 325 321 324 321 323 322 311 308 307
310 312 314 318 324 327 313 310 311 322 337 339 339 338 333 329 328 328 327 325 324 323 323 328 325 324 324 324 325 325 322 320 321 323 323 318 321 320 323 321 308 307 306
308 311 314 318 323 327 313 310 310 323 334 338 338 337 335 331 313 317 328 325 322 317 309 309 311 308 306 308 320 324 320 319 317 318 322 318 318 318 320 320 316 308 307
310 312 315 317 320 324 314 307 308 326 334 335 333 330 317 328 305 308 327 325 320 316 318 318 318 314 312 313 308 323 323 321 318 317 320 315 318 319 316 320 318 313 312
Wind_Speed
5 5 5 5 6 5 6 7 7 6 6 7 6 8 7 8 7 4 3 13 15 14 15 14 15 14 13 12 12 12 12 11 10 11 11 12 12 14 16 16 16 15 13
6 5 5 6 5 7 7 6 6 7 7 5 7 9 9 6 6 6 4 5 14 14 13 14 15 15 15 14 13 13 13 13 11 11 11 12 13 14 17 17 17 17 14
8 8 5 5 6 5 7 5 5 4 3 4 5 6 5 6 6 7 6 5 6 14 15 15 16 16 16 16 15 14 13 13 12 12 12 12 13 14 16 17 18 17 16
9 6 5 5 5 5 3 4 4 4 3 2 3 4 5 5 7 7 6 6 5 5 11 16 15 16 15 16 15 14 13 12 13 13 13 12 14 14 15 16 16 16 16
11 9 5 5 5 5 4 4 3 3 2 2 3 5 5 5 8 7 8 7 7 6 4 10 16 16 16 17 17 16 14 14 14 14 14 13 14 15 15 15 15 15 16
10 7 4 5 6 4 4 2 3 2 3 2 4 5 4 5 5 7 8 6 6 8 6 6 6 8 18 18 18 18 16 15 16 15 14 14 14 15 15 15 15 15 15
7 10 6 5 5 6 6 6 4 4 3 3 1 3 7 7 7 8 8 6 6 6 7 6 4 4 6 15 15 17 16 16 16 16 15 14 15 15 16 15 15 14 14
7 7 7 7 7 4 6 6 5 3 3 4 4 1 5 3 2 9 6 5 7 5 6 7 7 7 6 5 8 15 15 14 18 16 15 14 15 16 16 16 15 14 14
8 7 7 7 7 7 9 9 9 9 8 0 6 4 1 4 3 8 9 5 6 4 5 6 7 8 7 6 7 10 12 14 15 15 16 16 16 16 16 16 15 15 14
9 8 10 10 10 8 11 12 11 9 6 5 3 4 5 5 5 7 5 5 6 6 6 5 6 7 8 5 9 11 11 14 14 14 17 17 17 17 16 16 16 15 15
7 10 7 7 10 10 13 12 4 9 6 5 5 4 6 1 5 8 13 6 4 5 6 6 6 4 6 6 4 7 13 13 12 10 11 13 16 16 16 16 17 16 16
7 11 12 11 10 10 12 9 6 8 9 9 9 8 4 4 2 4 10 8 5 5 6 5 5 5 5 5 6 8 12 10 8 9 8 10 12 15 15 15 16 18 18
2 3 9 10 9 12 12 12 11 11 9 10 14 9 4 6 4 8 8 5 5 4 4 3 4 5 4 4 5 7 9 9 8 8 8 8 8 10 12 13 15 16 17
4 4 4 6 8 11 16 13 9 9 10 11 14 11 9 9 7 10 5 5 2 3 3 4 2 4 4 4 4 7 4 7 8 9 8 8 8 9 9 10 12 13 11
3 4 5 6 7 12 16 15 11 10 12 13 14 13 12 9 8 7 4 4 6 3 5 4 3 1 4 5 5 5 4 7 8 8 8 8 9 9 8 9 10 10 10
5 5 7 6 7 9 11 13 11 11 12 9 9 12 11 9 6 4 4 4 4 5 3 3 1 2 4 3 4 5 3 2 6 8 8 7 8 9 8 8 9 11 13
6 6 7 8 7 7 9 11 12 10 11 12 11 10 11 8 4 4 4 4 4 3 4 2 1 2 3 5 3 3 3 2 3 8 8 8 8 7 7 8 10 12 13
6 5 6 6 9 10 10 11 13 11 12 11 12 10 11 6 8 6 5 6 5 4 4 4 2 1 3 2 3 2 2 3 1 1 5 6 5 5 6 9 11 12 13
7 7 10 9 10 10 13 13 13 14 11 11 12 12 12 8 8 6 5 6 4 3 4 4 4 2 2 2 2 2 2 1 2 3 4 5 5 6 6 7 9 11 13
9 10 9 11 14 13 13 14 14 13 13 12 10 11 11 11 10 8 7 7 5 4 3 4 3 3 2 2 3 1 0 1 2 2 3 4 6 6 6 6 6 9 13
10 13 14 13 12 10 10 14 14 16 12 11 9 12 10 9 12 11 8 7 6 5 3 4 3 2 2 3 3 3 2 2 2 3 2 2 2 2 2 4 6 9 11
10 12 13 13 15 12 14 17 16 13 11 12 12 11 8 11 11 14 11 8 8 7 5 4 4 4 4 4 4 4 3 2 2 2 2 2 3 2 2 2 5 8 13
9 13 14 14 16 16 14 17 20 10 13 12 10 8 6 5 10 8 7 6 6 8 8 7 6 5 5 6 6 5 5 3 3 2 3 2 2 1 2 2 8 10 12
12 12 14 15 14 14 14 17 20 9 13 12 10 12 10 9 9 12 8 7 5 5 6 4 5 6 6 7 7 6 7 4 2 1 3 3 1 1 0 1 5 9 11
17 15 14 15 14 14 14 17 11 9 13 12 10 13 13 12 13 14 9 7 6 2 4 5 7 7 7 10 8 6 4 5 2 3 2 3 1 2 1 1 2 6 10
14 13 15 14 14 11 15 16 11 8 12 8 5 8 13 13 15 13 8 7 7 5 6 4 3 4 4 3 8 6 5 6 3 2 4 4 3 3 2 2 2 3 3
Wind_Direction
189 190 184 186 193 190 212 221 222 229 233 224 226 245 243 227 232 235 192 188 194 203 208 209 211 207 206 206 214 215 219 216 215 218 213 212 203 200 200 198 199 199 198
190 200 195 190 193 201 217 226 214 224 230 218 214 240 239 249 253 253 251 209 205 206 211 218 217 214 212 213 216 220 221 215 212 221 215 215 210 203 206 211 207 210 213
191 199 202 204 207 203 208 207 238 240 231 219 241 243 254 258 250 240 236 232 215 216 212 219 220 215 214 215 221 223 226 224 209 219 220 217 211 209 210 217 219 221 211
192 183 193 209 208 238 238 218 209 232 221 215 243 268 269 273 259 246 234 231 220 208 220 224 220 221 220 222 228 230 224 222 213 214 218 218 212 212 212 215 222 221 217
189 196 198 188 203 223 233 222 237 197 260 293 262 252 258 257 256 250 243 230 224 219 203 218 218 221 212 220 226 230 224 215 213 213 215 216 213 212 216 215 217 221 221
193 191 190 190 204 216 225 193 164 218 206 189 256 266 272 254 230 253 250 243 224 224 214 205 208 221 212 214 220 231 232 220 213 214 217 212 212 214 215 216 217 216 214
185 201 197 189 197 208 191 188 184 210 284 175 323 302 274 239 250 253 249 229 228 219 213 215 189 205 211 217 223 230 236 234 220 215 215 216 210 212 216 214 215 216 212
164 192 193 210 200 230 216 198 178 177 234 195 185 133 291 303 297 277 253 235 231 219 224 219 195 194 202 198 216 231 232 242 234 221 218 216 213 212 212 212 211 213 210
154 186 198 198 213 215 233 210 205 181 225 190 232 166 240 234 21 355 300 260 239 227 235 224 204 202 200 209 206 215 209 223 235 227 221 222 215 213 210 210 208 209 208
207 188 203 204 213 219 237 230 220 197 167 159 215 189 211 193 153 269 253 281 246 237 230 217 206 209 209 196 208 204 205 214 225 229 231 221 219 215 213 209 207 204 206
193 198 198 229 231 224 233 234 228 209 187 147 198 209 232 208 144 193 275 263 294 253 225 212 211 210 203 196 215 213 210 215 210 218 229 223 224 213 216 210 208 201 204
213 183 191 198 213 230 239 240 212 196 195 199 216 222 204 199 184 217 233 248 222 266 238 217 197 204 200 194 218 193 209 199 192 206 227 222 227 218 220 211 206 208 208
302 219 203 208 204 237 249 249 235 217 202 205 216 223 203 225 183 235 229 237 224 256 259 232 220 195 186 185 216 195 187 182 191 204 212 220 220 217 208 208 202 205 208
237 266 246 224 237 225 239 234 216 221 227 227 228 218 213 225 210 234 208 189 291 276 280 224 253 210 193 173 201 155 166 178 194 212 211 219 212 210 202 202 199 200 194
241 241 234 242 233 231 236 230 227 231 230 223 227 230 221 219 204 217 191 188 161 222 262 276 224 220 133 128 152 148 166 213 209 203 211 209 208 206 200 198 196 189 175
244 263 272 248 239 264 257 231 227 223 225 221 227 229 228 231 191 221 191 218 176 180 207 206 228 126 112 108 141 106 100 103 219 208 204 198 201 200 193 189 184 170 163
246 243 245 259 259 253 262 256 238 226 221 227 228 213 214 207 203 212 183 193 195 168 169 315 99 133 113 127 88 79 85 316 269 221 192 187 202 202 185 178 175 173 170
277 266 271 266 267 260 256 251 249 239 232 229 226 207 213 192 205 196 187 195 195 183 151 168 144 116 95 95 106 65 344 316 31 195 196 160 183 184 177 181 185 177 168
286 286 276 267 268 273 260 256 250 242 235 233 223 205 211 193 205 198 181 199 198 186 173 150 155 136 127 153 79 23 289 91 52 113 149 153 161 164 176 190 194 177 171
282 276 268 275 273 265 275 261 255 243 237 236 215 204 204 196 201 191 184 184 186 183 167 139 125 135 143 164 121 152 0 349 105 75 77 133 155 164 177 202 202 185 175
271 269 271 270 266 267 273 275 253 247 229 223 212 211 207 193 196 191 173 181 172 160 159 130 136 135 152 141 167 185 166 183 118 153 135 146 139 145 167 182 205 192 177
263 264 263 268 274 269 263 274 269 244 230 222 223 213 211 196 189 165 162 173 180 168 162 156 164 167 188 178 149 157 149 161 167 243 141 138 141 171 178 191 204 181 180
256 259 261 261 261 261 255 265 268 257 240 217 205 194 174 165 149 133 108 111 154 166 160 154 167 182 169 185 156 157 168 174 187 216 128 125 127 145 193 201 195 181 185
256 258 261 262 253 253 248 261 267 258 252 213 199 176 162 158 155 144 153 143 140 134 126 155 170 188 186 176 171 167 170 170 62 134 134 145 134 126 174 99 177 173 175
264 257 258 255 249 250 248 257 260 251 247 213 187 169 155 154 162 143 151 160 139 119 52 109 124 144 165 172 161 124 159 142 138 201 165 117 171 140 197 217 171 182 184
267 256 256 254 241 247 256 258 225 240 233 190 144 152 147 148 149 151 157 151 150 173 155 146 128 95 137 143 177 161 162 159 149 137 200 116 156 147 218 203 174 163 170